Le nostre stazioni meteo in Italia

Pubblicità
Il mio iltempo24.it
Ferrara, Italia (16138): Temperatura & dewpoint: 14.10.2017 09:00:00 - 20.10.2017 09:00:00 (CEST)Ferrara, Italia (16138): velocità del vento: 14.10.2017 09:00:00 - 20.10.2017 09:00:00 (CEST)Ferrara, Italia (16138): direzione del vento: 14.10.2017 09:00:00 - 20.10.2017 09:00:00 (CEST)Ferrara, Italia (16138): reduced air pressure: 14.10.2017 09:00:00 - 20.10.2017 09:00:00 (CEST)Ferrara, Italia (16138): visibility: 14.10.2017 09:00:00 - 20.10.2017 09:00:00 (CEST)
Data & Tempo tt [°C] td [°C] ff [km/h] ff [kn] dd ppp [hPa] vv [km]
20.10.2017 09:00:00 - - - - - - -
20.10.2017 08:00:00 11,4 9,5 0 0 N 1018,8 0,4
20.10.2017 07:00:00 - - - - - - -
20.10.2017 06:00:00 - - - - - - -
20.10.2017 05:00:00 - - - - - - -
20.10.2017 04:00:00 - - - - - - -
20.10.2017 03:00:00 - - - - - - -
20.10.2017 02:00:00 - - - - - - -
20.10.2017 01:00:00 - - - - - - -
20.10.2017 00:00:00 - - - - - - -
19.10.2017 23:00:00 - - - - - - -
19.10.2017 22:00:00 - - - - - - -
19.10.2017 21:00:00 - - - - - - -
19.10.2017 20:00:00 12,4 10,1 4 2 E 1017,9 2,0
19.10.2017 19:00:00 13,0 10,0 5 3 N - 4,0
19.10.2017 18:00:00 15,0 11,0 5 3 N - 4,0
19.10.2017 17:00:00 15,0 11,0 5 3 N 1017,9 6
19.10.2017 16:00:00 15,0 11,0 0 0 N - 6
19.10.2017 15:00:00 14,0 11,0 0 0 N - 3,0
19.10.2017 14:00:00 13,8 11,0 0 0 N 1018,9 0,9
19.10.2017 13:00:00 14,0 11,0 4 2 SSO - 0,9
19.10.2017 12:00:00 13,0 11,0 4 2 SSO - 0,8
19.10.2017 11:00:00 13,2 11,1 0 0 N 1018,9 0,4
19.10.2017 10:00:00 13,0 11,0 0 0 N - 0,5
19.10.2017 09:00:00 13,0 11,0 0 0 N - 0,6
19.10.2017 08:00:00 13,2 11,2 0 0 N 1017,9 0,8
19.10.2017 07:00:00 - - - - - - -
19.10.2017 06:00:00 - - - - - - -
19.10.2017 05:00:00 - - - - - - -
19.10.2017 04:00:00 - - - - - - -
19.10.2017 03:00:00 - - - - - - -
19.10.2017 02:00:00 - - - - - - -
19.10.2017 01:00:00 - - - - - - -
19.10.2017 00:00:00 - - - - - - -
18.10.2017 23:00:00 - - - - - - -
18.10.2017 22:00:00 - - - - - - -
18.10.2017 21:00:00 - - - - - - -
18.10.2017 20:00:00 13,4 11,5 5 3 NE 1017,9 1,0
18.10.2017 19:00:00 15,0 12,0 4 2 NE - 1,5
18.10.2017 18:00:00 16,0 13,0 4 2 NNE - 2,0
18.10.2017 17:00:00 17,4 13,5 4 2 NE 1018,0 2,0
18.10.2017 16:00:00 17,0 13,0 4 2 NE - 1,5
18.10.2017 15:00:00 16,0 13,0 2 1 NE - 1,2
18.10.2017 14:00:00 15,0 12,9 4 2 ENE 1019,4 1,0
18.10.2017 13:00:00 13,0 11,0 4 2 E - 0,7
18.10.2017 12:00:00 11,0 10,0 2 1 E - 0,1
18.10.2017 11:00:00 10,8 9,4 2 1 SSO 1020,3 -
18.10.2017 10:00:00 9,0 8,0 0 0 N - -
18.10.2017 09:00:00 9,0 7,0 2 1 SSO - -
18.10.2017 08:00:00 9,4 8,0 2 1 SSO 1020,1 -
18.10.2017 07:00:00 - - - - - - -
18.10.2017 06:00:00 - - - - - - -
18.10.2017 05:00:00 - - - - - - -
18.10.2017 04:00:00 - - - - - - -
18.10.2017 03:00:00 - - - - - - -
18.10.2017 02:00:00 - - - - - - -
18.10.2017 01:00:00 - - - - - - -
18.10.2017 00:00:00 - - - - - - -
17.10.2017 23:00:00 - - - - - - -
17.10.2017 22:00:00 - - - - - - -
17.10.2017 21:00:00 - - - - - - -
17.10.2017 20:00:00 16,2 12,7 0 0 N 1022,4 3,0
17.10.2017 19:00:00 18,0 12,0 4 2 ONO - 4,0
17.10.2017 18:00:00 20,0 12,0 0 0 N - 6
17.10.2017 17:00:00 21,2 12,1 2 1 ENE 1022,7 6
17.10.2017 16:00:00 22,0 13,0 2 1 E - 6
17.10.2017 15:00:00 22,0 14,0 2 1 SSE - 6
17.10.2017 14:00:00 19,8 13,3 2 1 NE 1024,7 6
17.10.2017 13:00:00 19,0 13,0 4 2 N - 6
17.10.2017 12:00:00 17,0 13,0 5 3 ONO - 6
17.10.2017 11:00:00 14,2 11,5 4 2 O 1025,9 4,0
17.10.2017 10:00:00 11,0 10,0 4 2 O - 2,0
17.10.2017 09:00:00 8,0 7,0 0 0 N - 1,5
17.10.2017 08:00:00 7,4 6,7 0 0 N 1025,5 0,8
17.10.2017 07:00:00 - - - - - - -
17.10.2017 06:00:00 - - - - - - -
17.10.2017 05:00:00 - - - - - - -
17.10.2017 04:00:00 - - - - - - -
17.10.2017 03:00:00 - - - - - - -
17.10.2017 02:00:00 - - - - - - -
17.10.2017 01:00:00 - - - - - - -
17.10.2017 00:00:00 - - - - - - -
16.10.2017 23:00:00 - - - - - - -
16.10.2017 22:00:00 - - - - - - -
16.10.2017 21:00:00 - - - - - - -
16.10.2017 20:00:00 16,4 12,4 0 0 N 1025,7 6
16.10.2017 19:00:00 19,0 13,0 0 0 N - 8
16.10.2017 18:00:00 22,0 14,0 0 0 N - 9
16.10.2017 17:00:00 23,4 13,9 0 0 N 1026,1 10
16.10.2017 16:00:00 24,0 14,0 5 3 ONO - 10
16.10.2017 15:00:00 25,0 15,0 4 2 OSO - 10
16.10.2017 14:00:00 23,4 14,9 4 2 E 1027,5 9
16.10.2017 13:00:00 22,0 15,0 5 3 O - 9
16.10.2017 12:00:00 20,0 15,0 4 2 ONO - 8
16.10.2017 11:00:00 16,2 13,1 0 0 N 1028,6 6
16.10.2017 10:00:00 12,0 10,0 4 2 SO - 4,0
16.10.2017 09:00:00 9,0 8,0 0 0 N - 1,1
16.10.2017 08:00:00 7,8 6,7 0 0 N 1027,2 0,8
16.10.2017 07:00:00 - - - - - - -
16.10.2017 06:00:00 - - - - - - -
16.10.2017 05:00:00 - - - - - - -
16.10.2017 04:00:00 - - - - - - -
16.10.2017 03:00:00 - - - - - - -
16.10.2017 02:00:00 - - - - - - -
16.10.2017 01:00:00 - - - - - - -
16.10.2017 00:00:00 - - - - - - -
15.10.2017 23:00:00 - - - - - - -
15.10.2017 22:00:00 - - - - - - -
15.10.2017 21:00:00 - - - - - - -
15.10.2017 20:00:00 16,0 12,6 0 0 N 1027,0 6
15.10.2017 19:00:00 18,0 13,0 0 0 N - 6
15.10.2017 18:00:00 21,0 13,0 0 0 N - 8
15.10.2017 17:00:00 23,0 14,0 0 0 N 1027,0 8
15.10.2017 16:00:00 24,0 15,0 4 2 N - 8
15.10.2017 15:00:00 24,0 16,0 0 0 N - 6
15.10.2017 14:00:00 23,4 16,2 5 3 O 1028,7 6
15.10.2017 13:00:00 21,0 15,0 5 3 O - 3,0
15.10.2017 12:00:00 19,0 14,0 4 2 ONO - 2,0
15.10.2017 11:00:00 16,4 13,1 5 3 S 1029,3 1,5
15.10.2017 10:00:00 12,0 11,0 8 4 O - 0,9
15.10.2017 09:00:00 9,0 8,0 0 0 N - 0,9
15.10.2017 08:00:00 8,0 6,9 0 0 N 1028,5 0,6
15.10.2017 07:00:00 - - - - - - -
15.10.2017 06:00:00 - - - - - - -
15.10.2017 05:00:00 - - - - - - -
15.10.2017 04:00:00 - - - - - - -
15.10.2017 03:00:00 - - - - - - -
15.10.2017 02:00:00 - - - - - - -
15.10.2017 01:00:00 - - - - - - -
15.10.2017 00:00:00 - - - - - - -
14.10.2017 23:00:00 - - - - - - -
14.10.2017 22:00:00 - - - - - - -
14.10.2017 21:00:00 - - - - - - -
14.10.2017 20:00:00 15,0 12,0 0 0 N 1027,4 3,0
14.10.2017 19:00:00 17,0 12,0 0 0 N - 6
14.10.2017 18:00:00 19,0 13,0 0 0 N - 7
14.10.2017 17:00:00 21,4 13,8 0 0 N 1027,3 6
14.10.2017 16:00:00 22,0 14,0 4 2 SO - 4,0
14.10.2017 15:00:00 22,0 15,0 4 2 NNE - 3,0
14.10.2017 14:00:00 21,4 15,3 5 3 NO 1028,0 2,0
14.10.2017 13:00:00 19,0 15,0 5 3 ONO - 1,5
14.10.2017 12:00:00 15,0 13,0 4 2 OSO - 0,6
14.10.2017 11:00:00 12,2 11,1 4 2 O 1028,7 0,5
14.10.2017 10:00:00 10,0 9,0 0 0 N - 0,2
14.10.2017 09:00:00 9,0 8,0 0 0 N - 0,2

tt = Temperatura
td = dewpoint
ff = velocità del vento
dd = direzione del vento
ppp = reduced air pressure
vv = visibility

Stazioni seguenti

WeatherPro
AMSI
MeteoEarth